Time,TemperatureF,DewpointF,PressureIn,WindDirection,WindDirectionDegrees,WindSpeedMPH,WindSpeedGustMPH,Humidity,HourlyPrecipIn,Conditions,Clouds,dailyrainin,SoftwareType,DateUTC
2013-05-16 00:00:00,53.0,53.0,30.03,ESE,120,2.0,3.0,100,-99.99,,,-99.99,,2013-05-16 07:00:00,
2013-05-16 00:23:00,53.0,53.0,30.03,ESE,120,2.0,3.0,100,-99.99,,,-99.99,,2013-05-16 07:23:00,
2013-05-16 00:34:00,53.0,53.0,30.03,ESE,120,2.0,3.0,100,-99.99,,,-99.99,,2013-05-16 07:34:00,
2013-05-16 00:44:00,53.0,53.0,30.03,ESE,120,2.0,3.0,100,-99.99,,,-99.99,,2013-05-16 07:44:00,
2013-05-16 00:54:00,53.0,53.0,30.03,ESE,120,2.0,3.0,100,-99.99,,,-99.99,,2013-05-16 07:54:00,
2013-05-16 01:00:00,53.0,53.0,30.02,SE,140,3.0,5.0,100,-99.99,,,-99.99,,2013-05-16 08:00:00,
2013-05-16 01:23:00,53.0,53.0,30.02,SE,140,3.0,5.0,100,-99.99,,,-99.99,,2013-05-16 08:23:00,
2013-05-16 01:34:00,53.0,53.0,30.02,SE,140,3.0,5.0,100,-99.99,,,-99.99,,2013-05-16 08:34:00,
2013-05-16 01:44:00,53.0,53.0,30.02,SE,140,3.0,5.0,100,-99.99,,,-99.99,,2013-05-16 08:44:00,
2013-05-16 01:54:00,53.0,53.0,30.02,SE,140,3.0,5.0,100,-99.99,,,-99.99,,2013-05-16 08:54:00,
2013-05-16 02:00:00,53.0,53.0,30.00,SE,130,3.0,5.0,100,-99.99,,,-99.99,,2013-05-16 09:00:00,
2013-05-16 02:23:00,53.0,53.0,30.00,SE,130,3.0,5.0,100,-99.99,,,-99.99,,2013-05-16 09:23:00,
2013-05-16 02:35:00,53.0,53.0,30.00,SE,130,3.0,5.0,100,-99.99,,,-99.99,,2013-05-16 09:35:00,
2013-05-16 02:45:00,53.0,53.0,30.00,SE,130,3.0,5.0,100,-99.99,,,-99.99,,2013-05-16 09:45:00,
2013-05-16 02:55:00,53.0,53.0,30.00,SE,130,3.0,5.0,100,-99.99,,,-99.99,,2013-05-16 09:55:00,
2013-05-16 03:00:00,53.0,53.0,29.98,ESE,120,5.0,6.0,100,-99.99,,,-99.99,,2013-05-16 10:00:00,
2013-05-16 03:24:00,53.0,53.0,29.98,ESE,120,5.0,6.0,100,-99.99,,,-99.99,,2013-05-16 10:24:00,
2013-05-16 03:35:00,53.0,53.0,29.98,ESE,120,5.0,6.0,100,-99.99,,,-99.99,,2013-05-16 10:35:00,
2013-05-16 03:45:00,53.0,53.0,29.98,ESE,120,5.0,6.0,100,-99.99,,,-99.99,,2013-05-16 10:45:00,
2013-05-16 03:56:00,53.0,53.0,29.98,ESE,120,5.0,6.0,100,-99.99,,,-99.99,,2013-05-16 10:56:00,
2013-05-16 04:00:00,54.0,54.0,29.98,South,180,10.0,13.0,100,-99.99,,,-99.99,,2013-05-16 11:00:00,
2013-05-16 04:25:00,54.0,54.0,29.98,South,180,10.0,13.0,100,-99.99,,,-99.99,,2013-05-16 11:25:00,
2013-05-16 04:35:00,54.0,54.0,29.98,South,180,10.0,13.0,100,-99.99,,,-99.99,,2013-05-16 11:35:00,
2013-05-16 04:45:00,54.0,54.0,29.98,South,180,10.0,13.0,100,-99.99,,,-99.99,,2013-05-16 11:45:00,
2013-05-16 04:56:00,54.0,54.0,29.98,South,180,10.0,13.0,100,-99.99,,,-99.99,,2013-05-16 11:56:00,
2013-05-16 05:00:00,53.0,53.0,29.97,South,180,11.0,15.0,100,-99.99,,,-99.99,,2013-05-16 12:00:00,
2013-05-16 05:23:00,53.0,53.0,29.97,South,180,11.0,15.0,100,-99.99,,,-99.99,,2013-05-16 12:23:00,
2013-05-16 05:34:00,53.0,53.0,29.97,South,180,11.0,15.0,100,-99.99,,,-99.99,,2013-05-16 12:34:00,
2013-05-16 05:44:00,53.0,53.0,29.97,South,180,11.0,15.0,100,-99.99,,,-99.99,,2013-05-16 12:44:00,
2013-05-16 05:53:00,53.0,53.0,29.97,South,180,11.0,15.0,100,-99.99,,,-99.99,,2013-05-16 12:53:00,
2013-05-16 06:00:00,53.0,53.0,29.96,South,170,9.0,13.0,100,-99.99,,,-99.99,,2013-05-16 13:00:00,
2013-05-16 06:11:00,53.0,53.0,29.96,South,170,9.0,13.0,100,-99.99,,,-99.99,,2013-05-16 13:11:00,
2013-05-16 06:26:00,53.0,53.0,29.96,South,170,9.0,13.0,100,-99.99,,,-99.99,,2013-05-16 13:26:00,
2013-05-16 06:35:00,53.0,53.0,29.96,South,170,9.0,13.0,100,-99.99,,,-99.99,,2013-05-16 13:35:00,
2013-05-16 06:43:00,53.0,53.0,29.96,South,170,9.0,13.0,100,-99.99,,,-99.99,,2013-05-16 13:43:00,
2013-05-16 06:54:00,53.0,53.0,29.96,South,170,9.0,13.0,100,-99.99,,,-99.99,,2013-05-16 13:54:00,
2013-05-16 07:00:00,53.0,53.0,29.97,SSE,160,7.0,8.0,100,-99.99,,,-99.99,,2013-05-16 14:00:00,
2013-05-16 07:23:00,53.0,53.0,29.97,SSE,160,7.0,8.0,100,-99.99,,,-99.99,,2013-05-16 14:23:00,
2013-05-16 07:37:00,53.0,53.0,29.97,SSE,160,7.0,8.0,100,-99.99,,,-99.99,,2013-05-16 14:37:00,
2013-05-16 07:47:00,53.0,53.0,29.97,SSE,160,7.0,8.0,100,-99.99,,,-99.99,,2013-05-16 14:47:00,
2013-05-16 07:55:00,53.0,53.0,29.97,SSE,160,7.0,8.0,100,-99.99,,,-99.99,,2013-05-16 14:55:00,
2013-05-16 08:00:00,54.0,54.0,29.97,South,180,9.0,11.0,100,-99.99,,,-99.99,,2013-05-16 15:00:00,
2013-05-16 08:28:00,54.0,54.0,29.97,South,180,9.0,11.0,100,-99.99,,,-99.99,,2013-05-16 15:28:00,
2013-05-16 08:40:00,54.0,54.0,29.97,South,180,9.0,11.0,100,-99.99,,,-99.99,,2013-05-16 15:40:00,
2013-05-16 08:50:00,54.0,54.0,29.97,South,180,9.0,11.0,100,-99.99,,,-99.99,,2013-05-16 15:50:00,
2013-05-16 09:00:00,54.0,54.0,29.98,South,190,16.0,20.0,99,-99.99,,,-99.99,,2013-05-16 16:00:00,
2013-05-16 09:30:00,54.0,54.0,29.98,South,190,16.0,20.0,99,-99.99,,,-99.99,,2013-05-16 16:30:00,
2013-05-16 09:40:00,54.0,-99.9,29.98,South,190,16.0,20.0,99,-99.99,,,-99.99,,2013-05-16 16:40:00,
2013-05-16 09:50:00,54.0,54.0,29.98,South,190,16.0,20.0,99,-99.99,,,-99.99,,2013-05-16 16:50:00,
2013-05-16 10:00:00,55.0,-99.9,29.98,South,190,17.0,21.0,99,-99.99,,,-99.99,,2013-05-16 17:00:00,
2013-05-16 10:30:00,55.0,55.0,29.98,South,190,17.0,21.0,99,-99.99,,,-99.99,,2013-05-16 17:30:00,
2013-05-16 10:40:00,55.0,55.0,29.98,South,190,17.0,21.0,99,-99.99,,,-99.99,,2013-05-16 17:40:00,
2013-05-16 10:50:00,55.0,-99.9,29.98,South,190,17.0,21.0,99,-99.99,,,-99.99,,2013-05-16 17:50:00,
2013-05-16 11:00:00,-999.0,-99.9,29.99,SSW,200,18.0,23.0,100,-99.99,,,-99.99,,2013-05-16 18:00:00,
2013-05-16 11:30:00,-999.0,-99.9,29.99,SSW,200,18.0,23.0,100,-99.99,,,-99.99,,2013-05-16 18:30:00,
2013-05-16 11:40:00,-999.0,-99.9,29.99,SSW,200,18.0,23.0,100,-99.99,,,-99.99,,2013-05-16 18:40:00,
2013-05-16 11:50:00,-999.0,-99.9,29.99,SSW,200,18.0,23.0,100,-99.99,,,-99.99,,2013-05-16 18:50:00,
2013-05-16 12:00:00,54.0,-99.9,29.99,SSW,200,16.0,18.0,100,-99.99,,,-99.99,,2013-05-16 19:00:00,
2013-05-16 12:30:00,54.0,54.0,29.99,SSW,200,16.0,18.0,100,-99.99,,,-99.99,,2013-05-16 19:30:00,
2013-05-16 12:40:00,54.0,-99.9,29.99,SSW,200,16.0,18.0,100,-99.99,,,-99.99,,2013-05-16 19:40:00,
2013-05-16 12:50:00,54.0,-99.9,29.99,SSW,200,16.0,18.0,100,-99.99,,,-99.99,,2013-05-16 19:50:00,
2013-05-16 13:00:00,54.0,54.0,29.99,South,190,20.0,23.0,100,-99.99,,,-99.99,,2013-05-16 20:00:00,
2013-05-16 13:20:00,54.0,54.0,29.99,South,190,20.0,23.0,100,-99.99,,,-99.99,,2013-05-16 20:20:00,
2013-05-16 13:30:00,54.0,54.0,29.99,South,190,20.0,23.0,100,-99.99,,,-99.99,,2013-05-16 20:30:00,
2013-05-16 13:40:00,-999.0,-99.9,29.99,South,190,20.0,23.0,100,-99.99,,,-99.99,,2013-05-16 20:40:00,
2013-05-16 13:50:00,54.0,54.0,29.99,South,190,20.0,23.0,100,-99.99,,,-99.99,,2013-05-16 20:50:00,
2013-05-16 14:00:00,-999.0,-99.9,30.00,SSW,200,15.0,17.0,100,-99.99,,,-99.99,,2013-05-16 21:00:00,
2013-05-16 14:29:00,54.0,54.0,30.00,SSW,200,15.0,17.0,100,-99.99,,,-99.99,,2013-05-16 21:29:00,
2013-05-16 14:38:00,54.0,54.0,30.00,SSW,200,15.0,17.0,100,-99.99,,,-99.99,,2013-05-16 21:38:00,
2013-05-16 14:50:00,54.0,54.0,30.00,SSW,200,15.0,17.0,100,-99.99,,,-99.99,,2013-05-16 21:50:00,
2013-05-16 15:00:00,53.0,53.0,30.01,SW,230,11.0,13.0,97,-99.99,,,-99.99,,2013-05-16 22:00:00,
2013-05-16 15:20:00,53.0,53.0,30.01,SW,230,11.0,13.0,97,-99.99,,,-99.99,,2013-05-16 22:20:00,
2013-05-16 15:30:00,53.0,53.0,30.01,SW,230,11.0,13.0,97,-99.99,,,-99.99,,2013-05-16 22:30:00,
2013-05-16 15:40:00,53.0,53.0,30.01,SW,230,11.0,13.0,97,-99.99,,,-99.99,,2013-05-16 22:40:00,
2013-05-16 15:50:00,53.0,53.0,30.01,SW,230,11.0,13.0,97,-99.99,,,-99.99,,2013-05-16 22:50:00,
2013-05-16 16:00:00,55.0,54.0,30.00,SSW,210,14.0,16.0,96,-99.99,,,-99.99,,2013-05-16 23:00:00,
2013-05-16 16:24:00,55.0,54.0,30.00,SSW,210,14.0,16.0,96,-99.99,,,-99.99,,2013-05-16 23:24:00,
2013-05-16 16:34:00,55.0,54.0,30.00,SSW,210,14.0,16.0,96,-99.99,,,-99.99,,2013-05-16 23:34:00,
2013-05-16 16:45:00,55.0,54.0,30.00,SSW,210,14.0,16.0,96,-99.99,,,-99.99,,2013-05-16 23:45:00,
2013-05-16 16:53:00,55.0,54.0,30.00,SSW,210,14.0,16.0,96,-99.99,,,-99.99,,2013-05-16 23:53:00,
2013-05-16 17:00:00,54.0,54.0,30.00,SSW,200,13.0,15.0,98,-99.99,,,-99.99,,2013-05-17 00:00:00,
2013-05-16 17:22:00,54.0,54.0,30.00,SSW,200,13.0,15.0,98,-99.99,,,-99.99,,2013-05-17 00:22:00,
2013-05-16 17:33:00,54.0,54.0,30.00,SSW,200,13.0,15.0,98,-99.99,,,-99.99,,2013-05-17 00:33:00,
2013-05-16 17:43:00,54.0,54.0,30.00,SSW,200,13.0,15.0,98,-99.99,,,-99.99,,2013-05-17 00:43:00,
2013-05-16 17:52:00,54.0,54.0,30.00,SSW,200,13.0,15.0,98,-99.99,,,-99.99,,2013-05-17 00:52:00,
2013-05-16 18:00:00,53.0,53.0,30.01,SSW,200,9.0,11.0,100,-99.99,,,-99.99,,2013-05-17 01:00:00,
2013-05-16 18:23:00,53.0,53.0,30.01,SSW,200,9.0,11.0,100,-99.99,,,-99.99,,2013-05-17 01:23:00,
2013-05-16 18:31:00,53.0,53.0,30.01,SSW,200,9.0,11.0,100,-99.99,,,-99.99,,2013-05-17 01:31:00,
2013-05-16 18:43:00,53.0,53.0,30.01,SSW,200,9.0,11.0,100,-99.99,,,-99.99,,2013-05-17 01:43:00,
2013-05-16 18:52:00,53.0,53.0,30.01,SSW,200,9.0,11.0,100,-99.99,,,-99.99,,2013-05-17 01:52:00,
2013-05-16 19:00:00,54.0,54.0,30.00,South,190,13.0,15.0,100,-99.99,,,-99.99,,2013-05-17 02:00:00,
2013-05-16 19:11:00,54.0,54.0,30.00,South,190,13.0,15.0,100,-99.99,,,-99.99,,2013-05-17 02:11:00,
2013-05-16 19:21:00,54.0,54.0,30.00,South,190,13.0,15.0,100,-99.99,,,-99.99,,2013-05-17 02:21:00,
2013-05-16 19:32:00,54.0,54.0,30.00,South,190,13.0,15.0,100,-99.99,,,-99.99,,2013-05-17 02:32:00,
2013-05-16 19:41:00,54.0,54.0,30.00,South,190,13.0,15.0,100,-99.99,,,-99.99,,2013-05-17 02:41:00,
2013-05-16 19:52:00,54.0,54.0,30.00,South,190,13.0,15.0,100,-99.99,,,-99.99,,2013-05-17 02:52:00,
2013-05-16 20:00:00,53.0,53.0,30.01,South,190,11.0,13.0,98,-99.99,,,-99.99,,2013-05-17 03:00:00,
2013-05-16 20:22:00,53.0,53.0,30.01,South,190,11.0,13.0,98,-99.99,,,-99.99,,2013-05-17 03:22:00,
2013-05-16 20:33:00,53.0,53.0,30.01,South,190,11.0,13.0,98,-99.99,,,-99.99,,2013-05-17 03:33:00,
2013-05-16 20:42:00,53.0,53.0,30.01,South,190,11.0,13.0,98,-99.99,,,-99.99,,2013-05-17 03:42:00,
2013-05-16 20:52:00,53.0,53.0,30.01,South,190,11.0,13.0,98,-99.99,,,-99.99,,2013-05-17 03:52:00,
2013-05-16 21:00:00,53.0,53.0,30.01,SSW,200,8.0,9.0,100,-99.99,,,-99.99,,2013-05-17 04:00:00,
2013-05-16 21:23:00,53.0,53.0,30.01,SSW,200,8.0,9.0,100,-99.99,,,-99.99,,2013-05-17 04:23:00,
2013-05-16 21:33:00,53.0,53.0,30.01,SSW,200,8.0,9.0,100,-99.99,,,-99.99,,2013-05-17 04:33:00,
2013-05-16 21:43:00,53.0,53.0,30.01,SSW,200,8.0,9.0,100,-99.99,,,-99.99,,2013-05-17 04:43:00,
2013-05-16 21:53:00,53.0,53.0,30.01,SSW,200,8.0,9.0,100,-99.99,,,-99.99,,2013-05-17 04:53:00,
2013-05-16 22:00:00,53.0,53.0,30.02,South,190,10.0,11.0,100,-99.99,,,-99.99,,2013-05-17 05:00:00,
2013-05-16 22:21:00,53.0,53.0,30.02,South,190,10.0,11.0,100,-99.99,,,-99.99,,2013-05-17 05:21:00,
2013-05-16 22:32:00,53.0,53.0,30.02,South,190,10.0,11.0,100,-99.99,,,-99.99,,2013-05-17 05:32:00,
2013-05-16 22:42:00,53.0,53.0,30.02,South,190,10.0,11.0,100,-99.99,,,-99.99,,2013-05-17 05:42:00,
2013-05-16 22:51:00,53.0,53.0,30.02,South,190,10.0,11.0,100,-99.99,,,-99.99,,2013-05-17 05:51:00,
2013-05-16 23:00:00,52.0,52.0,30.03,SSE,160,6.0,7.0,100,-99.99,,,-99.99,,2013-05-17 06:00:00,
2013-05-16 23:21:00,52.0,52.0,30.03,SSE,160,6.0,7.0,100,-99.99,,,-99.99,,2013-05-17 06:21:00,
2013-05-16 23:32:00,52.0,52.0,30.03,SSE,160,6.0,7.0,100,-99.99,,,-99.99,,2013-05-17 06:32:00,
2013-05-16 23:41:00,52.0,52.0,30.03,SSE,160,6.0,7.0,100,-99.99,,,-99.99,,2013-05-17 06:41:00,
2013-05-16 23:51:00,52.0,52.0,30.03,SSE,160,6.0,7.0,100,-99.99,,,-99.99,,2013-05-17 06:51:00,